Regional Weather Roundup
Issued by NWS

Home | Current Version | Previous Version | Graphics & Text | Print | Product List | Glossary On
Versions: 1 2 3 4 5 6 7 8 9 10 11 12 13 14 15 16 17 18 19 20 21 22 23 24 25 26 27 28 29 30 31 32 33 34 35 36 37 38 39 40 41 42 43 44 45 46 47 48 49 50
000
ASUS45 KABQ 110801
RWRNM
NEW MEXICO REGIONAL WEATHER ROUNDUP
NATIONAL WEATHER SERVICE ALBUQUERQUE NM
100 AM MST THU FEB 11 2016

NOTE: "FAIR" MEANS FEW OR NO CLOUDS BELOW 12,000 FEET AGL WITH NO
       SIGNIFICANT WEATHER OR OBSTRUCTIONS TO VISION.

      THIS PRODUCT IS RELEASED AS TWO VERSIONS.  ONE VERSION NEAR
      THE TOP OF THE HOUR CONTAINING PRELIMINARY DATA FROM ALBUQUERQUE
      AND OTHER STATIONS.  A FINAL VERSION WITH ADDITIONAL DATA IS
      ISSUED ABOUT 10 MINUTES AFTER THE HOUR.

NMZ501-503-504-510>518-110900-
NORTHWEST PLATEAU/NORTHCENTRAL MOUNTAINS

CITY           SKY/WX    TMP DP  RH WIND       PRES   REMARKS
FARMINGTON     CLOUDY    26  22  84 E5        30.35S WCI  20
SANTA FE       CLOUDY    39  17  41 N12       30.30S WCI  32
TAOS           CLOUDY    25  19  80 N5        30.35F WCI  19

$$
NMZ402-403-502-505>509-110900-
WESTCENTRAL MOUNTAINS/SOUTHWEST MOUNTAINS

CITY           SKY/WX    TMP DP  RH WIND       PRES   REMARKS
GALLUP         CLEAR     25  21  85 E3        30.38F
SILVER CITY      N/A     39  18  41 NW14      30.30F WCI  31

$$
NMZ407-409-411-412-110900-
SOUTHERN DESERTS

CITY           SKY/WX    TMP DP  RH WIND       PRES   REMARKS
DEMING         PTCLDY    38  17  42 W5        30.25S WCI  34
ALAMOGORDO     CLEAR     41  14  33 N3        30.24S
T OR C         PTCLDY    46  15  28 N6        30.26S

$$
NMZ519>523-110900-
CENTRAL VALLEYS/CENTRAL HIGHLANDS

CITY           SKY/WX    TMP DP  RH WIND       PRES   REMARKS
ALBUQUERQUE    CLOUDY    45  21  38 N6        30.31S
DOUBLE EAGLE   CLOUDY    25  13  60 SW8       30.32S WCI  17
MORIARTY ARPT  FAIR      28  17  66 N3        30.31S
CLINES CORNERS CLOUDY    34  17  50 NW16      30.27S WCI  24
BELEN          FAIR      36  18  48 N10       30.31S WCI  28
SOCORRO        NOT AVBL

$$
NMZ524>526-539-540-110900-
SOUTHCENTRAL MOUNTAINS

CITY           SKY/WX    TMP DP  RH WIND       PRES   REMARKS
RUIDOSO          N/A     45  14  29 NW7G17    30.30F

$$
NMZ527>531-110900-
NORTHEAST HIGHLANDS/NORTHEAST PLAINS

CITY           SKY/WX    TMP DP  RH WIND       PRES   REMARKS
LAS VEGAS      CLOUDY    37  10  32 N8        30.26S WCI  31
RATON          CLOUDY    39  10  30 N13       30.23R WCI  31
CLAYTON        CLOUDY    44  15  31 N12       30.18R

$$
NMZ532>537-110900-
EASTCENTRAL PLAINS

CITY           SKY/WX    TMP DP  RH WIND       PRES   REMARKS
TUCUMCARI      CLOUDY    42  19  39 W14       30.11R
CANNON AFB     CLOUDY    40  18  41 W12       30.11S WCI  33
CLOVIS AIRPORT CLOUDY    41  18  38 W9        30.11S

$$
NMZ028-029-538-110900-
SOUTHEAST PLAINS

CITY           SKY/WX    TMP DP  RH WIND       PRES   REMARKS
ROSWELL        CLOUDY    37  20  50 CALM      30.15S
ARTESIA        CLEAR     43  19  39 NE3       30.16S
CARLSBAD       CLOUDY    48  19  31 E7G24     30.14R
HOBBS          CLEAR     41  16  36 SW7       30.15F


$$



USA.gov is the U.S. government's official web portal to all federal, state and local government web resources and services.